Location: Lane
(33.5226°N, 79.8788°W)
Time: 18:59:13
(UTC+00:00)

Explorer 11/Cluster Stage 4 - Pass Details

Date: 08 October 2022
Orbit: 466 x 1247 km, 28.8° (Epoch: 01 December)

Event Time Altitude Azimuth Distance (km) Brightness Sun altitude
Rises 12:37:24 0° 215° (SW) 3,756 9.9 15.1°
Reaches altitude 10° 12:40:32 10° 201° (SSW) 2,923 9.5 15.7°
Maximum altitude 12:46:12 24° 151° (SSE) 2,212 9.8 16.9°
Drops below altitude 10° 12:52:20 10° 102° (ESE) 3,194 11.9 18.1°
Sets 12:55:56 0° 89° (E) 4,182 11.6 18.8°
